Content
SEND FEEDBACK

Daily
Averages
Monthly
Summary
United States of America

WEST WENDOVER, NEVADA


Home > North America > United States > Nevada
Elevation: 4272 feet     Latitude: 40 44N     Longitude: 114 02W

WEATHER
 
SELECT A DAY
Number of Records: 448,740;   Date Range: 1/1/95 - 9/21/14
 
SHARE

PRINT THIS DATA

[ ← Previous Day ]
WEATHER ALMANAC - JANUARY 31, 2013
[ Next Day → ]
[ °C ]   °F
Weather ElementAverageHighLow
Temperature34.9 °F42.8 °F (3:15 pm)26.6 °F (8:15 am)
Dewpoint27.4 °F32 °F (2:15 pm)23 °F (7:35 am)
Humidity75.2 %100 % (9:55 pm)57 % (3:35 pm)
Barometer30.30 in30.35 in (9:55 am)30.27 in (12:35 am)
Wind Speed5.7 mph13.8 mph (12:35 am)
Weather ElementAverage
Visibility10 mi
Wind DirectionSSE (140.7 °)

Weather ElementTotal
Precipitation---
Heating Degree Days30.3 (Base 65)
Averaged from 61 records on January 31, 2013
WEATHER CONDITIONS BREAKOUT
WIND DIRECTION BREAKOUT
WEATHER BY HOUR - JANUARY 31, 2013
[ °C ]   °F
Local TimeTemperatureDewpointHumidityBarometerVisibilityWind DirectionWind SpeedGust SpeedPrecipitationEventsConditions
12:35 AM39.2 °F28.4 °F65 %30.27 in10.0 miNW (320°)13.8 mphScattered Clouds
12:55 AM39.2 °F26.6 °F61 %30.27 in10.0 miWNW (290°)12.7 mphClear
1:15 AM39.2 °F28.4 °F65 %30.28 in10.0 miNNW (330°)12.7 mphClear
1:35 AM39.2 °F26.6 °F61 %30.28 in10.0 miNW (320°)11.5 mphClear
1:55 AM39.2 °F28.4 °F65 %30.28 in10.0 miNNW (330°)13.8 mphClear
2:15 AM39.2 °F26.6 °F61 %30.28 in10.0 miNW (310°)6.9 mphClear
2:35 AM37.4 °F28.4 °F70 %30.29 in10.0 miWNW (300°)6.9 mphClear
2:55 AM41.0 °F28.4 °F61 %30.29 in10.0 miNW (320°)5.8 mphClear
3:15 AM37.4 °F26.6 °F65 %30.29 in10.0 miNNW (340°)8.1 mphClear
3:35 AM35.6 °F26.6 °F70 %30.28 in10.0 miNW (310°)9.2 mphClear
3:55 AM37.4 °F26.6 °F65 %30.28 in10.0 miWSW (250°)6.9 mphClear
4:15 AM39.2 °F26.6 °F61 %30.28 in10.0 miWSW (250°)4.6 mphClear
4:35 AM33.8 °F24.8 °F70 %30.29 in10.0 miWSW (240°)6.9 mphClear
4:55 AM35.6 °F26.6 °F70 %30.29 in10.0 miWest (280°)5.8 mphClear
5:35 AM33.8 °F24.8 °F70 %30.30 in10.0 miCalmClear
5:55 AM33.8 °F26.6 °F75 %30.30 in10.0 miSouth (170°)6.9 mphClear
6:15 AM33.8 °F24.8 °F70 %30.30 in10.0 miWSW (240°)6.9 mphClear
6:35 AM30.2 °F24.8 °F80 %30.31 in10.0 miWNW (300°)8.1 mphClear
6:55 AM30.2 °F24.8 °F80 %30.31 in10.0 miWNW (300°)6.9 mphClear
7:15 AM33.8 °F26.6 °F75 %30.31 in10.0 miNNW (330°)6.9 mphClear
7:35 AM30.2 °F23.0 °F75 %30.31 in10.0 miSSW (200°)6.9 mphClear
7:55 AM28.4 °F24.8 °F86 %30.31 in10.0 miSW (230°)5.8 mphClear
8:15 AM26.6 °F23.0 °F86 %30.32 in10.0 miWSW (240°)4.6 mphClear
8:35 AM28.4 °F24.8 °F86 %30.33 in10.0 miNorth (10°)3.5 mphClear
8:55 AM30.2 °F24.8 °F80 %30.33 in10.0 miCalmClear
9:15 AM30.2 °F23.0 °F75 %30.34 in10.0 miEast (90°)3.5 mphClear
9:35 AM30.2 °F24.8 °F80 %30.34 in10.0 miSE (130°)4.6 mphClear
9:55 AM32.0 °F24.8 °F75 %30.35 in10.0 miENE (60°)6.9 mphClear
10:15 AM33.8 °F26.6 °F75 %30.34 in10.0 miENE (70°)6.9 mphClear
10:35 AM32.0 °F24.8 °F75 %30.35 in10.0 miENE (60°)9.2 mphClear
10:55 AM33.8 °F26.6 °F75 %30.34 in10.0 miEast (80°)8.1 mphClear
11:15 AM33.8 °F26.6 °F75 %30.35 in10.0 miESE (110°)6.9 mphClear
11:35 AM33.8 °F26.6 °F75 %30.35 in10.0 miNE (50°)6.9 mphClear
11:55 AM33.8 °F26.6 °F75 %30.34 in10.0 miNE (40°)6.9 mphClear
12:35 PM37.4 °F30.2 °F75 %30.33 in10.0 miEast (90°)5.8 mphClear
12:55 PM37.4 °F30.2 °F75 %30.33 in10.0 miEast (90°)6.9 mphClear
1:15 PM37.4 °F30.2 °F75 %30.32 in10.0 miEast (80°)4.6 mphClear
1:35 PM39.2 °F28.4 °F65 %30.31 in10.0 miEast (100°)3.5 mphClear
1:55 PM39.2 °F28.4 °F65 %30.31 in10.0 miEast (80°)6.9 mphClear
2:15 PM41.0 °F32.0 °F70 %30.31 in10.0 miEast (80°)5.8 mphClear
2:35 PM41.0 °F30.2 °F65 %30.30 in10.0 miESE (110°)4.6 mphClear
3:15 PM42.8 °F30.2 °F61 %30.30 in10.0 miESE (110°)5.8 mphClear
3:35 PM42.8 °F28.4 °F57 %30.30 in10.0 miESE (120°)3.5 mphClear
3:55 PM42.8 °F30.2 °F61 %30.29 in10.0 miCalmClear
4:15 PM42.8 °F30.2 °F61 %30.29 in10.0 miEast (90°)5.8 mphClear
4:35 PM41.0 °F30.2 °F65 %30.29 in10.0 miEast (100°)4.6 mphClear
5:15 PM37.4 °F28.4 °F70 %30.29 in10.0 miEast (80°)5.8 mphClear
5:35 PM37.4 °F30.2 °F75 %30.29 in10.0 miEast (90°)5.8 mphClear
6:15 PM35.6 °F30.2 °F81 %30.28 in10.0 miESE (110°)6.9 mphClear
6:35 PM33.8 °F30.2 °F87 %30.28 in10.0 miNE (50°)3.5 mphClear
6:55 PM33.8 °F30.2 °F87 %30.29 in10.0 miCalmClear
7:35 PM32.0 °F28.4 °F87 %30.29 in10.0 miENE (60°)4.6 mphClear
8:15 PM32.0 °F28.4 °F87 %30.29 in10.0 miNE (50°)4.6 mphClear
8:35 PM32.0 °F30.2 °F93 %30.29 in10.0 miNE (40°)3.5 mphClear
9:15 PM30.2 °F28.4 °F93 %30.27 in10.0 miNE (40°)5.8 mphClear
9:35 PM28.4 °F26.6 °F93 %30.28 in10.0 miENE (70°)3.5 mphClear
9:55 PM28.4 °F28.4 °F100 %30.28 in10.0 miNE (40°)3.5 mphClear
10:15 PM30.2 °F28.4 °F93 %30.28 in10.0 miCalmClear
10:35 PM28.4 °F26.6 °F93 %30.28 in10.0 miCalmClear
11:15 PM28.4 °F28.4 °F100 %30.27 in10.0 miCalmClear
11:35 PM28.4 °F28.4 °F100 %30.27 in10.0 miCalmClear
Hourly data recorded from KENV, located miles away from West Wendover, Nevada







STORIES FROM OUR PARTNERS